{"data":{"norad_id":42958,"epoch":"2026-09-19T23:22:18.759072Z","epoch_age_seconds":61032,"freshness":"FRESH","line1":"1 42958U 17061D   26262.97382823  .00000053  00000+0  11938-4 0  9996","line2":"2 42958  86.4024 345.6485 0002394  97.8630 262.2838 14.34217855468380","mean_motion":14.34217855,"eccentricity":0.0002394,"inclination_deg":86.4024,"raan_deg":345.6485,"arg_perigee_deg":97.863,"mean_anomaly_deg":262.2838,"bstar":1.1938e-5,"rev_number":46838,"period_min":100.40315667385,"perigee_km":775.95370566856,"apogee_km":779.37990453044,"semimajor_km":7155.8038050995,"source":"CELESTRAK","updated_at":"2026-09-20T09:00:36.324721Z"}}